Flag for Reunion (French) Weather past 2 weeks in Saint-Denis, Reunion (French)

Now
77 °F

Scattered clouds.


Feels Like: 79 °F
Forecast: 66 / 76 °F
Wind: 7 mph from Northwest

Location: Saint-Denis / Gillot

Current Time: Sep 3, 2014 at 9:35:59 AM

Latest Report: Sep 3, 2014 at 9:00 AM


Visibility: N/A

Pressure: 30.01 "Hg

Humidity: 54%

Dew point: 59 °F

Location of Saint-DenisLocation

Historic Weather in Saint-Denis — Graph

°F

Saint-Denis temperature yesterday

Maximum temperature yesterday: 79 °F (at 3:00 PM)
Minimum temperature yesterday: 63 °F (at 4:30 AM)
Average temperature yesterday: 72 °F

Past Weeks' High & Low Weather Summary

 TemperatureHumidityPressure
High82 °F (Aug 25, 12:30 PM)100% (Aug 26, 6:00 AM)30.30 "Hg (Aug 26, 6:00 AM)
Low63 °F (Sep 2, 4:30 AM)39% (Aug 21, 9:30 AM)29.92 "Hg (Aug 23, 2:30 PM)
Average73 °F69%30.05 "Hg
* Reported Aug 19 8:00 AM — Sep 3 8:30 AM, Saint-Denis, Weather by CustomWeather, © 2014

Note: Actual official high and low records may vary slightly from our data, if they occured in-between our weather recording intervals... More about our weather records

Advertising

Saint-Denis weather history for previous 24 hours

 ConditionsComfort  
Time TempWeatherWind HumidityBarometerVisibility
8:30 AM
Sep 3
73 °FScattered clouds.6 mph61%30.01 "HgN/A
8:00 AM72 °FScattered clouds.1 mph61%30.01 "HgN/A
7:30 AM70 °FScattered clouds.5 mph69%30.01 "HgN/A
7:00 AM66 °FScattered clouds.5 mph73%29.98 "HgN/A
6:30 AM66 °FPassing clouds.3 mph73%29.98 "HgN/A
6:00 AM68 °FPassing clouds.3 mph69%29.95 "HgN/A
5:30 AM68 °FPassing clouds.5 mph73%29.95 "HgN/A
5:00 AM68 °FPassing clouds.6 mph69%29.95 "HgN/A
4:30 AM68 °FPassing clouds.8 mph69%29.95 "HgN/A
4:00 AM68 °FPassing clouds.7 mph73%29.95 "HgN/A
3:30 AM66 °FPartly cloudy.7 mph78%29.95 "HgN/A
3:00 AM66 °FPartly cloudy.8 mph78%29.95 "HgN/A
2:30 AM66 °FPassing clouds.6 mph78%29.95 "HgN/A
2:00 AM66 °FPassing clouds.7 mph78%29.95 "HgN/A
1:30 AM66 °FClear.7 mph78%29.98 "HgN/A
1:00 AM68 °FClear.7 mph73%29.98 "HgN/A
12:30 AM68 °FPassing clouds.8 mph73%29.98 "HgN/A
12:00 AM68 °FPassing clouds.6 mph73%30.01 "HgN/A
11:30 PM
Sep 2
68 °FPassing clouds.8 mph73%30.01 "HgN/A
11:00 PM68 °FPassing clouds.6 mph73%30.01 "HgN/A
10:30 PM68 °FPassing clouds.6 mph73%30.01 "HgN/A
10:00 PM68 °FPassing clouds.7 mph73%30.01 "HgN/A
9:30 PM70 °FPassing clouds.6 mph73%30.01 "HgN/A
9:00 PM72 °FPassing clouds.6 mph69%30.01 "HgN/A
8:30 PM72 °FPassing clouds.5 mph73%30.01 "HgN/A
8:00 PM72 °FPassing clouds.5 mph73%29.98 "HgN/A
7:30 PM72 °FPassing clouds.6 mph73%29.98 "HgN/A
7:00 PM72 °FPassing clouds.3 mph73%29.95 "HgN/A
6:30 PM73 °FPassing clouds.6 mph69%29.95 "HgN/A
6:00 PM73 °FPassing clouds.8 mph69%29.95 "HgN/A
5:00 PM75 °FScattered clouds.6 mph69%29.92 "HgN/A
4:30 PM75 °FScattered clouds.6 mph65%29.92 "HgN/A
4:00 PM75 °FScattered clouds.6 mph69%29.92 "HgN/A
3:30 PM77 °FScattered clouds.7 mph65%29.92 "HgN/A
3:00 PM79 °FScattered clouds.7 mph61%29.92 "HgN/A
2:30 PM77 °FScattered clouds.7 mph65%29.92 "HgN/A
2:00 PM77 °FPassing clouds.9 mph65%29.92 "HgN/A
1:30 PM77 °FPassing clouds.12 mph69%29.92 "HgN/A
1:00 PM77 °FPassing clouds.12 mph69%29.92 "HgN/A
12:34 PM77 °FPassing clouds.10 mph65%29.95 "HgN/A
12:00 PM77 °FPassing clouds.7 mph65%29.95 "HgN/A
11:30 AM77 °FPassing clouds.8 mph65%29.95 "HgN/A
11:00 AM77 °FPassing clouds.6 mph61%29.98 "HgN/A
10:30 AM77 °FPassing clouds.6 mph61%29.98 "HgN/A
10:00 AM77 °FPassing clouds.6 mph65%29.98 "HgN/A
9:30 AM77 °FPassing clouds.5 mph65%29.98 "HgN/A
9:00 AM75 °FPassing clouds.6 mph69%29.98 "HgN/A
Weather by CustomWeather, © 2014

See weather overviewHow to use our weather pages